Rp Zug — HE7351 — position and weather

sailwx.info

Track history (hours):
 
Tides and Currents Weather Stations Pressure Air Temp Water Temp Dewpoint Dewpoint Depression Visibility Wind Speed Wind Dir Waves Ship Positions

Rp Zug

Last reported at 2014-Oct-29 14:29 UTC. Time now 2014-Oct-30 15:10 UTC.
Position N 50°50' E 006°60'.

Type: Tanker. MMSI: 269057351.

Date/timePositionNaut miles runAvg speedWind from/ knotsBaromVisibWave heightAir tempDewpointWater temp
2014-Oct-29 14:29N 50°50' E 006°60'4 0.1
2014-Oct-28 06:25N 50°53' E 007°03'13 4.3
2014-Oct-28 03:23N 51°04' E 006°52'3 4.0
2014-Oct-28 02:33N 51°08' E 006°51'3 2.7
2014-Oct-28 01:33N 51°09' E 006°48'4 4.0
2014-Oct-28 00:33N 51°13' E 006°44'3 2.7
2014-Oct-27 23:33N 51°15' E 006°45'4 4.1
2014-Oct-27 22:33N 51°19' E 006°44'33 4.0
2014-Oct-27 14:24N 51°48' E 006°19'17 4.0
2014-Oct-27 10:06N 51°51' E 005°51'4 6.6
2014-Oct-27 09:33N 51°53' E 005°46'7 6.9
2014-Oct-27 08:33N 51°54' E 005°35'6 6.5
2014-Oct-27 07:34N 51°52' E 005°25'5 5.1
2014-Oct-27 06:34N 51°49' E 005°18'7 7.0
2014-Oct-27 05:34N 51°49' E 005°07'8 7.9
2014-Oct-27 04:34N 51°49' E 004°54'9 8.7
2014-Oct-27 03:34N 51°49' E 004°40'2 2.0
2014-Oct-27 02:33N 51°47' E 004°38'0 0.0
2014-Oct-27 01:33N 51°47' E 004°38'0 0.0
2014-Oct-27 00:33N 51°47' E 004°38'0 0.0
2014-Oct-26 23:33N 51°47' E 004°38'0 0.0
2014-Oct-26 22:33N 51°47' E 004°38'0 0.0
2014-Oct-26 21:33N 51°47' E 004°38'0 0.0
2014-Oct-26 20:33N 51°47' E 004°38'0 0.0
2014-Oct-26 19:33N 51°47' E 004°38'0 0.0
2014-Oct-26 18:33N 51°47' E 004°38'0 0.0
2014-Oct-26 17:33N 51°47' E 004°38'0 0.0
2014-Oct-26 16:33N 51°47' E 004°38'0 0.0
2014-Oct-26 15:33N 51°47' E 004°38'0 0.0
2014-Oct-26 14:33N 51°47' E 004°38'0 0.1
2014-Oct-26 13:34N 51°47' E 004°38'0 0.1
2014-Oct-26 12:33N 51°47' E 004°38'0 0.0
2014-Oct-26 11:33N 51°47' E 004°38'0 0.0
2014-Oct-26 10:33N 51°47' E 004°38'0 0.0
2014-Oct-26 09:33N 51°47' E 004°38'0 0.0
2014-Oct-26 08:33N 51°47' E 004°38'0 0.0
2014-Oct-26 07:33N 51°47' E 004°38'0 0.0
2014-Oct-26 06:33N 51°47' E 004°38'0 0.0
2014-Oct-26 05:33N 51°47' E 004°38'0 0.0
2014-Oct-26 04:33N 51°47' E 004°38'0 0.0
2014-Oct-26 03:33N 51°47' E 004°38'0 0.0
2014-Oct-26 02:33N 51°47' E 004°38'0 0.0
2014-Oct-26 01:33N 51°47' E 004°38'0 0.0
2014-Oct-26 00:33N 51°47' E 004°38'0 0.0
2014-Oct-25 23:33N 51°47' E 004°38'0 0.0
2014-Oct-25 22:33N 51°47' E 004°38'0 0.0
2014-Oct-25 21:33N 51°47' E 004°38'0 0.0
2014-Oct-25 20:33N 51°47' E 004°38'0 0.0
2014-Oct-25 19:33N 51°47' E 004°38'0 0.0
2014-Oct-25 18:33N 51°47' E 004°38'0 0.0
2014-Oct-25 17:33N 51°47' E 004°38'0 0.0
2014-Oct-25 16:33N 51°47' E 004°38'0 0.0
2014-Oct-25 15:33N 51°47' E 004°38'0 0.0
2014-Oct-25 14:33N 51°47' E 004°38'0 0.0
2014-Oct-25 13:33N 51°47' E 004°38'0 0.0
2014-Oct-25 12:33N 51°47' E 004°38'0 0.0
2014-Oct-25 11:33N 51°47' E 004°38'0 0.0
2014-Oct-25 10:33N 51°47' E 004°38'5 5.0
2014-Oct-25 09:34N 51°49' E 004°46'1211.9
2014-Oct-25 08:33N 51°50' E 005°05'1111.0
2014-Oct-25 07:33N 51°49' E 005°23'1111.0
2014-Oct-25 06:33N 51°54' E 005°39'1310.2
2014-Oct-25 05:17N 51°53' E 005°60'1012.0
2014-Oct-25 04:26N 51°49' E 006°16'29 1.4
2014-Oct-24 07:09N 51°26' E 006°43'5 7.6
2014-Oct-24 06:33N 51°22' E 006°40'8 8.0
2014-Oct-24 05:33N 51°15' E 006°46'6 6.0
2014-Oct-24 04:33N 51°09' E 006°48'7 6.5
2014-Oct-24 03:24N 51°03' E 006°55'7 8.1
2014-Oct-24 02:32N 50°56' E 006°58'  
2014-Oct-20 11:13N 50°55' E 006°59'9 5.4
2014-Oct-20 09:34N 51°03' E 006°55'5 4.6
2014-Oct-20 08:33N 51°07' E 006°52'3 3.4
2014-Oct-20 07:33N 51°10' E 006°48'4 4.3
2014-Oct-20 06:33N 51°14' E 006°44'4 3.6
2014-Oct-20 05:33N 51°17' E 006°43'5 5.0
2014-Oct-20 04:33N 51°22' E 006°39'28 4.6
2014-Oct-19 22:26N 51°47' E 006°19'15 7.3
2014-Oct-19 20:19N 51°56' E 005°58'  
Track history (hours):
 
Tides and Currents Weather Stations Pressure Air Temp Water Temp Dewpoint Dewpoint Depression Visibility Wind Speed Wind Dir Waves Ship Positions

Rp Zug

Last reported at 2014-Oct-29 14:29 UTC. Time now 2014-Oct-30 15:10 UTC.
Position N 50°50' E 006°60'.

Type: Tanker. MMSI: 269057351.

Date/timePositionNaut miles runAvg speedWind from/ knotsBaromVisibWave heightAir tempDewpointWater temp
2014-Oct-29 14:29N 50°50' E 006°60'4 0.1
2014-Oct-28 06:25N 50°53' E 007°03'13 4.3
2014-Oct-28 03:23N 51°04' E 006°52'3 4.0
2014-Oct-28 02:33N 51°08' E 006°51'3 2.7
2014-Oct-28 01:33N 51°09' E 006°48'4 4.0
2014-Oct-28 00:33N 51°13' E 006°44'3 2.7
2014-Oct-27 23:33N 51°15' E 006°45'4 4.1
2014-Oct-27 22:33N 51°19' E 006°44'33 4.0
2014-Oct-27 14:24N 51°48' E 006°19'17 4.0
2014-Oct-27 10:06N 51°51' E 005°51'4 6.6
2014-Oct-27 09:33N 51°53' E 005°46'7 6.9
2014-Oct-27 08:33N 51°54' E 005°35'6 6.5
2014-Oct-27 07:34N 51°52' E 005°25'5 5.1
2014-Oct-27 06:34N 51°49' E 005°18'7 7.0
2014-Oct-27 05:34N 51°49' E 005°07'8 7.9
2014-Oct-27 04:34N 51°49' E 004°54'9 8.7
2014-Oct-27 03:34N 51°49' E 004°40'2 2.0
2014-Oct-27 02:33N 51°47' E 004°38'0 0.0
2014-Oct-27 01:33N 51°47' E 004°38'0 0.0
2014-Oct-27 00:33N 51°47' E 004°38'0 0.0
2014-Oct-26 23:33N 51°47' E 004°38'0 0.0
2014-Oct-26 22:33N 51°47' E 004°38'0 0.0
2014-Oct-26 21:33N 51°47' E 004°38'0 0.0
2014-Oct-26 20:33N 51°47' E 004°38'0 0.0
2014-Oct-26 19:33N 51°47' E 004°38'0 0.0
2014-Oct-26 18:33N 51°47' E 004°38'0 0.0
2014-Oct-26 17:33N 51°47' E 004°38'0 0.0
2014-Oct-26 16:33N 51°47' E 004°38'0 0.0
2014-Oct-26 15:33N 51°47' E 004°38'0 0.0
2014-Oct-26 14:33N 51°47' E 004°38'0 0.1
2014-Oct-26 13:34N 51°47' E 004°38'0 0.1
2014-Oct-26 12:33N 51°47' E 004°38'0 0.0
2014-Oct-26 11:33N 51°47' E 004°38'0 0.0
2014-Oct-26 10:33N 51°47' E 004°38'0 0.0
2014-Oct-26 09:33N 51°47' E 004°38'0 0.0
2014-Oct-26 08:33N 51°47' E 004°38'0 0.0
2014-Oct-26 07:33N 51°47' E 004°38'0 0.0
2014-Oct-26 06:33N 51°47' E 004°38'0 0.0
2014-Oct-26 05:33N 51°47' E 004°38'0 0.0
2014-Oct-26 04:33N 51°47' E 004°38'0 0.0
2014-Oct-26 03:33N 51°47' E 004°38'0 0.0
2014-Oct-26 02:33N 51°47' E 004°38'0 0.0
2014-Oct-26 01:33N 51°47' E 004°38'0 0.0
2014-Oct-26 00:33N 51°47' E 004°38'0 0.0
2014-Oct-25 23:33N 51°47' E 004°38'0 0.0
2014-Oct-25 22:33N 51°47' E 004°38'0 0.0
2014-Oct-25 21:33N 51°47' E 004°38'0 0.0
2014-Oct-25 20:33N 51°47' E 004°38'0 0.0
2014-Oct-25 19:33N 51°47' E 004°38'0 0.0
2014-Oct-25 18:33N 51°47' E 004°38'0 0.0
2014-Oct-25 17:33N 51°47' E 004°38'0 0.0
2014-Oct-25 16:33N 51°47' E 004°38'0 0.0
2014-Oct-25 15:33N 51°47' E 004°38'0 0.0
2014-Oct-25 14:33N 51°47' E 004°38'0 0.0
2014-Oct-25 13:33N 51°47' E 004°38'0 0.0
2014-Oct-25 12:33N 51°47' E 004°38'0 0.0
2014-Oct-25 11:33N 51°47' E 004°38'0 0.0
2014-Oct-25 10:33N 51°47' E 004°38'5 5.0
2014-Oct-25 09:34N 51°49' E 004°46'1211.9
2014-Oct-25 08:33N 51°50' E 005°05'1111.0
2014-Oct-25 07:33N 51°49' E 005°23'1111.0
2014-Oct-25 06:33N 51°54' E 005°39'1310.2
2014-Oct-25 05:17N 51°53' E 005°60'1012.0
2014-Oct-25 04:26N 51°49' E 006°16'29 1.4
2014-Oct-24 07:09N 51°26' E 006°43'5 7.6
2014-Oct-24 06:33N 51°22' E 006°40'8 8.0
2014-Oct-24 05:33N 51°15' E 006°46'6 6.0
2014-Oct-24 04:33N 51°09' E 006°48'7 6.5
2014-Oct-24 03:24N 51°03' E 006°55'7 8.1
2014-Oct-24 02:32N 50°56' E 006°58'  
2014-Oct-20 11:13N 50°55' E 006°59'9 5.4
2014-Oct-20 09:34N 51°03' E 006°55'5 4.6
2014-Oct-20 08:33N 51°07' E 006°52'3 3.4
2014-Oct-20 07:33N 51°10' E 006°48'4 4.3
2014-Oct-20 06:33N 51°14' E 006°44'4 3.6
2014-Oct-20 05:33N 51°17' E 006°43'5 5.0
2014-Oct-20 04:33N 51°22' E 006°39'28 4.6
2014-Oct-19 22:26N 51°47' E 006°19'15 7.3
2014-Oct-19 20:19N 51°56' E 005°58'  

Dump ship's entire track history